Location: Blangy-Tronville
(49.8790°N, 2.4226°E)
Time: 20:46:31
(UTC+00:00)

SPOT 1/Viking Rocket - Pass Details

Date: 18 November 2025
Orbit: 773 x 788 km, 98.2° (Epoch: 05 December)

Event Time Altitude Azimuth Distance (km) Brightness Sun altitude
Rises 18:18:53 0° 175° (S) 3,256 6.8 -21.6°
Reaches altitude 10° 18:21:13 10° 180° (S) 2,335 6.0 -22.0°
Maximum altitude 18:26:18 59° 259° (W) 910 4.1 -22.8°
Drops below altitude 10° 18:31:27 10° 339° (NNW) 2,360 6.2 -23.6°
Sets 18:33:50 0° 343° (NNW) 3,295 7.0 -24.0°
